| time (UTC) | temp C | wind direction | speed KPH | gust KPH | rain 1hr cm | rain 24hr cm | rain mn cm | humidity % | barometer mb |
| 20260507051042 | 5 | 324 | 1.6 | 8.0 | 0.00 | 0.00 | 0.00 | 94 | 1005.9 |
| 20260507050546 | 5 | 324 | 1.6 | 4.8 | 0.00 | 0.00 | 0.00 | 94 | 1005.7 |
| 20260507050052 | 5 | 0 | 1.6 | 3.2 | 0.00 | 0.00 | 0.00 | 94 | 1005.8 |
| 20260507045543 | 5 | 324 | 1.6 | 3.2 | 0.00 | 0.00 | 0.00 | 94 | 1005.8 |
| 20260507045043 | 5 | 0 | 0.0 | 3.2 | 0.00 | 0.00 | 0.00 | 94 | 1005.8 |
| 20260507044550 | 5 | 324 | 0.0 | 3.2 | 0.00 | 0.00 | 0.00 | 95 | 1005.9 |
| 20260507044044 | 5 | 324 | 1.6 | 3.2 | 0.00 | 0.00 | 0.00 | 95 | 1005.5 |
| 20260507043543 | 5 | 324 | 0.0 | 1.6 | 0.00 | 0.00 | 0.00 | 96 | 1005.8 |
| 20260507043049 | 5 | 0 | 0.0 | 3.2 | 0.00 | 0.00 | 0.00 | 95 | 1005.8 |
| 20260507042542 | 5 | 0 | 0.0 | 3.2 | 0.00 | 0.00 | 0.00 | 95 | 1005.7 |
| 20260507042041 | 5 | 0 | 0.0 | 3.2 | 0.00 | 0.00 | 0.00 | 95 | 1006.0 |
| 20260507041551 | 5 | 324 | 0.0 | 1.6 | 0.00 | 0.00 | 0.00 | 95 | 1006.1 |
| 20260507041043 | 6 | 0 | 0.0 | 3.2 | 0.00 | 0.00 | 0.00 | 95 | 1006.2 |
| 20260507040541 | 6 | 324 | 1.6 | 3.2 | 0.00 | 0.00 | 0.00 | 95 | 1006.1 |
| 20260507040049 | 6 | 324 | 1.6 | 3.2 | 0.00 | 0.00 | 0.00 | 95 | 1006.1 |
| 20260507035545 | 6 | 324 | 0.0 | 3.2 | 0.00 | 0.00 | 0.00 | 95 | 1006.2 |
| 20260507035045 | 6 | 324 | 1.6 | 3.2 | 0.00 | 0.00 | 0.00 | 95 | 1006.4 |
| 20260507034552 | 6 | 324 | 0.0 | 1.6 | 0.00 | 0.00 | 0.00 | 96 | 1006.3 |
| 20260507034044 | 6 | 324 | 0.0 | 1.6 | 0.00 | 0.00 | 0.00 | 96 | 1006.5 |
| 20260507033542 | 6 | 324 | 0.0 | 1.6 | 0.00 | 0.00 | 0.00 | 96 | 1006.4 |
| 20260507033050 | 6 | 0 | 0.0 | 0.0 | 0.00 | 0.00 | 0.00 | 96 | 1006.4 |
| 20260507032546 | 6 | 0 | 0.0 | 0.0 | 0.00 | 0.00 | 0.00 | 96 | 1006.4 |
| 20260507032041 | 6 | 0 | 0.0 | 1.6 | 0.00 | 0.00 | 0.00 | 96 | 1006.4 |
| 20260507031551 | 6 | 0 | 0.0 | 1.6 | 0.00 | 0.00 | 0.00 | 96 | 1006.5 |
| 20260507031044 | 6 | 0 | 0.0 | 1.6 | 0.00 | 0.00 | 0.00 | 96 | 1006.4 |
| 20260507030542 | 6 | 0 | 0.0 | 1.6 | 0.00 | 0.00 | 0.00 | 96 | 1006.4 |
| 20260507030059 | 6 | 324 | 1.6 | 3.2 | 0.00 | 0.00 | 0.00 | 96 | 1006.4 |
| 20260507025541 | 6 | 324 | 1.6 | 3.2 | 0.00 | 0.00 | 0.00 | 96 | 1006.5 |
| 20260507025050 | 6 | 324 | 1.6 | 3.2 | 0.00 | 0.00 | 0.00 | 96 | 1006.3 |
| 20260507024613 | 6 | 324 | 1.6 | 3.2 | 0.00 | 0.00 | 0.00 | 96 | 1006.2 |
| 20260507024045 | 6 | 324 | 1.6 | 3.2 | 0.00 | 0.00 | 0.00 | 96 | 1006.2 |
| 20260507023546 | 6 | 324 | 0.0 | 3.2 | 0.00 | 0.00 | 0.00 | 96 | 1006.1 |
| 20260507023051 | 6 | 324 | 1.6 | 3.2 | 0.00 | 0.00 | 0.00 | 96 | 1006.1 |
| 20260507022549 | 6 | 324 | 0.0 | 4.8 | 0.00 | 0.00 | 0.00 | 96 | 1006.3 |
| 20260507022041 | 6 | 324 | 1.6 | 4.8 | 0.00 | 0.00 | 0.00 | 96 | 1006.0 |
| 20260507021547 | 6 | 324 | 0.0 | 1.6 | 0.00 | 0.00 | 0.00 | 96 | 1006.0 |
| 20260507021046 | 6 | 0 | 0.0 | 0.0 | 0.00 | 0.00 | 0.00 | 96 | 1005.9 |
| 20260507020546 | 6 | 0 | 0.0 | 1.6 | 0.00 | 0.00 | 0.00 | 96 | 1005.8 |
| 20260507020106 | 6 | 0 | 0.0 | 1.6 | 0.00 | 0.00 | 0.00 | 96 | 1005.6 |
| 20260507015541 | 6 | 324 | 0.0 | 3.2 | 0.00 | 0.00 | 0.00 | 96 | 1005.6 |
| 20260507015041 | 6 | 324 | 0.0 | 6.4 | 0.00 | 0.00 | 0.00 | 96 | 1005.8 |
| 20260507014602 | 6 | 324 | 1.6 | 6.4 | 0.00 | 0.00 | 0.00 | 96 | 1005.9 |
| 20260507014041 | 6 | 324 | 3.2 | 6.4 | 0.00 | 0.00 | 0.00 | 96 | 1006.1 |
| 20260507013544 | 6 | 324 | 1.6 | 4.8 | 0.00 | 0.00 | 0.00 | 96 | 1005.8 |
| 20260507013051 | 6 | 324 | 1.6 | 4.8 | 0.00 | 0.00 | 0.00 | 96 | 1005.5 |
| 20260507012545 | 6 | 324 | 0.0 | 3.2 | 0.00 | 0.00 | 0.00 | 96 | 1005.3 |
| 20260507012045 | 6 | 324 | 1.6 | 3.2 | 0.00 | 0.00 | 0.00 | 96 | 1005.4 |
| 20260507011553 | 6 | 324 | 0.0 | 1.6 | 0.00 | 0.00 | 0.00 | 96 | 1005.4 |
| 20260507011042 | 6 | 324 | 0.0 | 3.2 | 0.00 | 0.00 | 0.00 | 96 | 1005.5 |
| 20260507010541 | 6 | 324 | 1.6 | 3.2 | 0.00 | 0.00 | 0.00 | 96 | 1005.5 |
| 20260507010049 | 6 | 324 | 1.6 | 3.2 | 0.00 | 0.00 | 0.00 | 96 | 1005.6 |
| 20260507005544 | 6 | 324 | 0.0 | 1.6 | 0.00 | 0.00 | 0.00 | 96 | 1005.6 |
| 20260507005043 | 6 | 324 | 0.0 | 1.6 | 0.00 | 0.00 | 0.00 | 96 | 1005.6 |
| 20260507004551 | 6 | 0 | 0.0 | 3.2 | 0.00 | 0.00 | 0.00 | 96 | 1005.4 |
| 20260507004043 | 6 | 0 | 0.0 | 3.2 | 0.00 | 0.00 | 0.00 | 96 | 1005.4 |
| 20260507003542 | 6 | 324 | 0.0 | 6.4 | 0.00 | 0.00 | 0.00 | 96 | 1005.4 |
| 20260507003053 | 6 | 324 | 1.6 | 6.4 | 0.00 | 0.00 | 0.00 | 96 | 1005.8 |
| 20260507002542 | 6 | 324 | 1.6 | 3.2 | 0.00 | 0.00 | 0.00 | 96 | 1005.6 |
| 20260507002043 | 6 | 324 | 0.0 | 1.6 | 0.00 | 0.00 | 0.00 | 96 | 1005.4 |
| 20260507001557 | 6 | 324 | 0.0 | 1.6 | 0.00 | 0.00 | 0.00 | 96 | 1005.3 |
| 20260507001044 | 6 | 324 | 0.0 | 1.6 | 0.00 | 0.00 | 0.00 | 96 | 1005.3 |
| 20260507000546 | 7 | 324 | 0.0 | 1.6 | 0.00 | 0.00 | 0.00 | 96 | 1005.2 |
| 20260507000054 | 7 | 324 | 0.0 | 4.8 | 0.00 | 0.00 | 0.00 | 96 | 1005.3 |
| 20260506235544 | 7 | 324 | 0.0 | 6.4 | 0.00 | 0.00 | 0.00 | 96 | 1005.2 |
| 20260506235046 | 7 | 324 | 1.6 | 6.4 | 0.00 | 0.00 | 0.00 | 95 | 1005.2 |
| 20260506234555 | 7 | 324 | 1.6 | 6.4 | 0.00 | 0.00 | 0.00 | 95 | 1005.2 |
| 20260506234043 | 7 | 324 | 1.6 | 4.8 | 0.00 | 0.00 | 0.00 | 95 | 1005.2 |
| 20260506233543 | 7 | 324 | 0.0 | 3.2 | 0.00 | 0.00 | 0.00 | 96 | 1005.3 |
| 20260506233059 | 7 | 324 | 0.0 | 4.8 | 0.00 | 0.00 | 0.00 | 96 | 1005.2 |
| 20260506232543 | 7 | 324 | 0.0 | 4.8 | 0.00 | 0.00 | 0.00 | 96 | 1005.3 |
| 20260506232045 | 7 | 0 | 0.0 | 3.2 | 0.00 | 0.00 | 0.00 | 96 | 1005.3 |
| 20260506231557 | 7 | 0 | 0.0 | 3.2 | 0.00 | 0.00 | 0.00 | 96 | 1005.0 |
| 20260506231045 | 7 | 324 | 0.0 | 3.2 | 0.00 | 0.00 | 0.00 | 96 | 1004.9 |
| 20260506230544 | 7 | 0 | 0.0 | 3.2 | 0.00 | 0.00 | 0.00 | 96 | 1004.8 |
| 20260506230057 | 7 | 0 | 0.0 | 3.2 | 0.00 | 0.00 | 0.00 | 96 | 1004.8 |
| 20260506225542 | 8 | 324 | 0.0 | 4.8 | 0.00 | 0.00 | 0.00 | 96 | 1004.8 |
| 20260506225043 | 7 | 0 | 0.0 | 6.4 | 0.00 | 0.00 | 0.00 | 96 | 1004.7 |
| 20260506224550 | 7 | 324 | 3.2 | 9.7 | 0.00 | 0.00 | 0.00 | 96 | 1004.3 |
| 20260506224042 | 7 | 324 | 3.2 | 11.3 | 0.00 | 0.00 | 0.00 | 95 | 1004.5 |
| 20260506223542 | 7 | 324 | 3.2 | 11.3 | 0.00 | 0.00 | 0.00 | 95 | 1004.5 |
| 20260506223056 | 8 | 324 | 3.2 | 11.3 | 0.00 | 0.00 | 0.00 | 95 | 1004.7 |
| 20260506222544 | 8 | 324 | 4.8 | 11.3 | 0.00 | 0.00 | 0.00 | 96 | 1004.5 |
| 20260506222041 | 9 | 324 | 3.2 | 8.0 | 0.00 | 0.00 | 0.00 | 96 | 1004.6 |
| 20260506221553 | 10 | 324 | 4.8 | 8.0 | 0.00 | 0.00 | 0.00 | 97 | 1004.5 |
| 20260506221044 | 10 | 324 | 0.0 | 1.6 | 0.00 | 0.00 | 0.00 | 98 | 1004.2 |
| 20260506220545 | 9 | 0 | 0.0 | 1.6 | 0.00 | 0.00 | 0.00 | 96 | 1004.2 |
| 20260506220050 | 10 | 0 | 0.0 | 1.6 | 0.00 | 0.00 | 0.00 | 95 | 1004.2 |
| 20260506215544 | 11 | 324 | 0.0 | 0.0 | 0.00 | 0.00 | 0.00 | 98 | 1004.3 |
| 20260506215044 | 11 | 0 | 0.0 | 0.0 | 0.00 | 0.00 | 0.00 | 98 | 1004.1 |
| 20260506214552 | 10 | 0 | 0.0 | 0.0 | 0.00 | 0.00 | 0.00 | 98 | 1004.1 |
| 20260506214045 | 10 | 0 | 0.0 | 0.0 | 0.00 | 0.00 | 0.00 | 97 | 1004.3 |
| 20260506213545 | 10 | 0 | 0.0 | 1.6 | 0.00 | 0.00 | 0.00 | 97 | 1004.3 |
| 20260506213104 | 10 | 0 | 0.0 | 1.6 | 0.00 | 0.00 | 0.00 | 96 | 1004.4 |
| 20260506212542 | 10 | 0 | 0.0 | 1.6 | 0.00 | 0.00 | 0.00 | 96 | 1004.4 |
| 20260506212044 | 10 | 0 | 0.0 | 0.0 | 0.00 | 0.00 | 0.00 | 97 | 1004.5 |
| 20260506211603 | 10 | 0 | 0.0 | 0.0 | 0.00 | 0.00 | 0.00 | 97 | 1004.5 |
| 20260506211043 | 10 | 0 | 0.0 | 0.0 | 0.00 | 0.00 | 0.00 | 96 | 1004.6 |
| 20260506210543 | 10 | 0 | 0.0 | 0.0 | 0.00 | 0.00 | 0.00 | 96 | 1004.5 |
| 20260506210051 | 11 | 0 | 0.0 | 0.0 | 0.00 | 0.00 | 0.00 | 97 | 1004.5 |
| 20260506205545 | 10 | 0 | 0.0 | 0.0 | 0.00 | 0.00 | 0.00 | 96 | 1004.5 |
| 20260506205046 | 11 | 0 | 0.0 | 0.0 | 0.00 | 0.00 | 0.00 | 96 | 1004.5 |
| 20260506204555 | 11 | 0 | 0.0 | 0.0 | 0.00 | 0.00 | 0.00 | 97 | 1004.3 |
| 20260506204041 | 11 | 0 | 0.0 | 1.6 | 0.00 | 0.00 | 0.00 | 97 | 1004.4 |
| 20260506203545 | 11 | 0 | 0.0 | 1.6 | 0.00 | 0.00 | 0.00 | 97 | 1004.5 |
| 20260506203052 | 11 | 0 | 0.0 | 1.6 | 0.00 | 0.00 | 0.00 | 96 | 1004.4 |
| 20260506202547 | 11 | 0 | 0.0 | 0.0 | 0.00 | 0.00 | 0.00 | 98 | 1004.5 |
| 20260506202047 | 11 | 0 | 0.0 | 0.0 | 0.00 | 0.00 | 0.00 | 98 | 1004.5 |
| 20260506201601 | 11 | 0 | 0.0 | 1.6 | 0.00 | 0.00 | 0.00 | 97 | 1004.5 |
| 20260506201044 | 11 | 0 | 0.0 | 1.6 | 0.00 | 0.00 | 0.00 | 97 | 1004.6 |
| 20260506200545 | 11 | 324 | 0.0 | 1.6 | 0.00 | 0.00 | 0.00 | 97 | 1004.7 |
| 20260506200053 | 11 | 0 | 0.0 | 3.2 | 0.00 | 0.00 | 0.00 | 96 | 1004.7 |
| 20260506195543 | 11 | 324 | 0.0 | 3.2 | 0.00 | 0.00 | 0.00 | 96 | 1004.7 |
| 20260506195042 | 11 | 324 | 0.0 | 0.0 | 0.00 | 0.00 | 0.00 | 96 | 1004.7 |
| 20260506194557 | 11 | 0 | 0.0 | 0.0 | 0.00 | 0.00 | 0.00 | 96 | 1004.6 |
| 20260506194045 | 12 | 324 | 0.0 | 1.6 | 0.00 | 0.00 | 0.00 | 97 | 1004.8 |
| 20260506193544 | 12 | 0 | 0.0 | 1.6 | 0.00 | 0.00 | 0.00 | 97 | 1005.0 |
| 20260506193048 | 12 | 0 | 0.0 | 1.6 | 0.00 | 0.00 | 0.00 | 97 | 1005.1 |
| 20260506192548 | 12 | 0 | 0.0 | 1.6 | 0.00 | 0.00 | 0.00 | 97 | 1005.0 |
| 20260506192044 | 12 | 0 | 0.0 | 0.0 | 0.00 | 0.00 | 0.00 | 97 | 1005.0 |
| 20260506191550 | 12 | 0 | 0.0 | 3.2 | 0.00 | 0.00 | 0.00 | 97 | 1005.0 |
| 20260506191046 | 12 | 0 | 0.0 | 3.2 | 0.00 | 0.00 | 0.00 | 97 | 1005.1 |
| 20260506190544 | 12 | 324 | 0.0 | 0.0 | 0.00 | 0.00 | 0.00 | 97 | 1005.2 |
| 20260506190050 | 12 | 0 | 0.0 | 1.6 | 0.00 | 0.00 | 0.00 | 97 | 1005.4 |
| 20260506185544 | 12 | 0 | 0.0 | 1.6 | 0.00 | 0.00 | 0.00 | 97 | 1005.4 |
| 20260506185049 | 12 | 0 | 0.0 | 1.6 | 0.00 | 0.00 | 0.00 | 97 | 1005.5 |
| 20260506184603 | 12 | 0 | 0.0 | 3.2 | 0.00 | 0.00 | 0.00 | 97 | 1005.5 |
| 20260506184044 | 11 | 324 | 0.0 | 3.2 | 0.00 | 0.00 | 0.00 | 97 | 1005.4 |
| 20260506183544 | 11 | 324 | 0.0 | 3.2 | 0.00 | 0.00 | 0.00 | 97 | 1005.6 |
| 20260506183059 | 11 | 0 | 0.0 | 1.6 | 0.00 | 0.00 | 0.00 | 97 | 1005.8 |
| 20260506182542 | 11 | 324 | 0.0 | 1.6 | 0.00 | 0.00 | 0.00 | 97 | 1005.9 |
| 20260506182044 | 11 | 0 | 0.0 | 3.2 | 0.00 | 0.00 | 0.00 | 97 | 1005.9 |
| 20260506181548 | 11 | 0 | 0.0 | 3.2 | 0.00 | 0.00 | 0.00 | 97 | 1006.0 |
| 20260506181042 | 11 | 0 | 0.0 | 4.8 | 0.00 | 0.00 | 0.00 | 97 | 1005.9 |
| 20260506180544 | 11 | 0 | 0.0 | 4.8 | 0.00 | 0.00 | 0.00 | 97 | 1005.7 |
| 20260506180058 | 11 | 0 | 0.0 | 1.6 | 0.00 | 0.00 | 0.00 | 97 | 1005.9 |
| 20260506175545 | 11 | 0 | 0.0 | 1.6 | 0.00 | 0.00 | 0.00 | 97 | 1005.9 |
| 20260506175043 | 11 | 0 | 0.0 | 4.8 | 0.00 | 0.00 | 0.00 | 97 | 1005.9 |
| 20260506174549 | 11 | 0 | 0.0 | 4.8 | 0.00 | 0.00 | 0.00 | 97 | 1005.9 |
| 20260506174044 | 11 | 324 | 0.0 | 4.8 | 0.00 | 0.00 | 0.00 | 97 | 1005.7 |
| 20260506173546 | 11 | 324 | 0.0 | 4.8 | 0.00 | 0.00 | 0.00 | 97 | 1005.9 |
| 20260506173052 | 11 | 324 | 0.0 | 4.8 | 0.00 | 0.00 | 0.00 | 97 | 1006.0 |
| 20260506172549 | 12 | 324 | 0.0 | 3.2 | 0.00 | 0.00 | 0.00 | 97 | 1006.1 |
| 20260506172054 | 12 | 324 | 0.0 | 3.2 | 0.00 | 0.00 | 0.00 | 97 | 1006.1 |
| 20260506171552 | 12 | 0 | 0.0 | 3.2 | 0.00 | 0.00 | 0.00 | 97 | 1005.9 |
| 20260506171044 | 12 | 0 | 0.0 | 1.6 | 0.00 | 0.00 | 0.00 | 98 | 1006.1 |
| 20260506170544 | 12 | 0 | 0.0 | 1.6 | 0.00 | 0.00 | 0.00 | 98 | 1006.1 |
| 20260506170108 | 12 | 0 | 0.0 | 1.6 | 0.00 | 0.00 | 0.00 | 98 | 1006.1 |
| 20260506165548 | 12 | 324 | 0.0 | 3.2 | 0.00 | 0.00 | 0.00 | 98 | 1006.2 |
| 20260506165046 | 12 | 0 | 0.0 | 3.2 | 0.00 | 0.00 | 0.00 | 98 | 1006.2 |
| 20260506164550 | 12 | 0 | 0.0 | 1.6 | 0.00 | 0.00 | 0.00 | 98 | 1006.4 |
| 20260506164046 | 12 | 0 | 0.0 | 1.6 | 0.00 | 0.00 | 0.00 | 98 | 1006.6 |
| 20260506163542 | 12 | 324 | 0.0 | 0.0 | 0.00 | 0.00 | 0.00 | 98 | 1006.7 |
| 20260506163102 | 11 | 0 | 0.0 | 0.0 | 0.00 | 0.00 | 0.00 | 98 | 1006.7 |
| 20260506162543 | 11 | 0 | 0.0 | 0.0 | 0.00 | 0.00 | 0.00 | 98 | 1006.9 |
| 20260506162044 | 11 | 0 | 0.0 | 0.0 | 0.00 | 0.00 | 0.00 | 98 | 1007.2 |
| 20260506161553 | 11 | 0 | 0.0 | 1.6 | 0.00 | 0.00 | 0.00 | 98 | 1007.3 |
| 20260506161043 | 11 | 0 | 0.0 | 1.6 | 0.00 | 0.00 | 0.00 | 98 | 1007.5 |
| 20260506160543 | 11 | 324 | 0.0 | 8.0 | 0.00 | 0.00 | 0.00 | 98 | 1007.4 |
| 20260506160056 | 11 | 0 | 1.6 | 8.0 | 0.00 | 0.00 | 0.00 | 98 | 1007.6 |
| 20260506155543 | 11 | 0 | 0.0 | 1.6 | 0.00 | 0.00 | 0.00 | 98 | 1007.6 |
| 20260506155046 | 11 | 0 | 0.0 | 3.2 | 0.00 | 0.00 | 0.00 | 98 | 1007.5 |
| 20260506154551 | 11 | 0 | 0.0 | 4.8 | 0.00 | 0.00 | 0.00 | 98 | 1007.6 |
| 20260506154043 | 11 | 0 | 0.0 | 4.8 | 0.00 | 0.00 | 0.00 | 98 | 1007.7 |
| 20260506153542 | 11 | 324 | 0.0 | 6.4 | 0.00 | 0.00 | 0.00 | 98 | 1007.8 |
| 20260506153053 | 11 | 324 | 0.0 | 6.4 | 0.00 | 0.00 | 0.00 | 98 | 1007.7 |
| 20260506152544 | 11 | 324 | 0.0 | 3.2 | 0.00 | 0.00 | 0.00 | 98 | 1007.7 |
| 20260506152046 | 11 | 0 | 0.0 | 3.2 | 0.00 | 0.00 | 0.00 | 98 | 1007.9 |
| 20260506151555 | 11 | 0 | 0.0 | 1.6 | 0.00 | 0.00 | 0.00 | 98 | 1007.8 |
| 20260506151048 | 11 | 0 | 0.0 | 1.6 | 0.00 | 0.00 | 0.00 | 98 | 1007.7 |
| 20260506150544 | 11 | 0 | 0.0 | 1.6 | 0.00 | 0.00 | 0.00 | 98 | 1007.7 |
| 20260506150049 | 10 | 0 | 0.0 | 4.8 | 0.00 | 0.00 | 0.00 | 98 | 1007.8 |
| 20260506145544 | 10 | 0 | 0.0 | 4.8 | 0.00 | 0.00 | 0.00 | 98 | 1007.8 |
| 20260506145047 | 10 | 324 | 0.0 | 3.2 | 0.00 | 0.00 | 0.00 | 98 | 1007.6 |
| 20260506144603 | 10 | 0 | 0.0 | 3.2 | 0.00 | 0.00 | 0.00 | 98 | 1007.7 |
| 20260506144043 | 10 | 0 | 0.0 | 1.6 | 0.00 | 0.00 | 0.00 | 98 | 1007.7 |
| 20260506143544 | 11 | 0 | 0.0 | 0.0 | 0.00 | 0.00 | 0.00 | 98 | 1007.6 |
| 20260506143055 | 11 | 324 | 0.0 | 0.0 | 0.00 | 0.00 | 0.00 | 98 | 1007.4 |
| 20260506142543 | 11 | 0 | 0.0 | 0.0 | 0.00 | 0.00 | 0.00 | 98 | 1007.5 |
| 20260506142042 | 10 | 0 | 0.0 | 0.0 | 0.00 | 0.00 | 0.00 | 98 | 1007.6 |
| 20260506141552 | 10 | 0 | 0.0 | 0.0 | 0.00 | 0.00 | 0.00 | 98 | 1007.7 |
| 20260506141043 | 10 | 0 | 0.0 | 0.0 | 0.00 | 0.00 | 0.00 | 98 | 1008.0 |
| 20260506140543 | 10 | 0 | 0.0 | 0.0 | 0.00 | 0.00 | 0.00 | 98 | 1008.1 |
| 20260506140053 | 10 | 0 | 0.0 | 0.0 | 0.00 | 0.00 | 0.00 | 98 | 1008.3 |
| 20260506135545 | 10 | 0 | 0.0 | 0.0 | 0.00 | 0.00 | 0.00 | 98 | 1008.5 |
| 20260506135044 | 10 | 0 | 0.0 | 0.0 | 0.00 | 0.00 | 0.00 | 98 | 1008.7 |
| 20260506134553 | 10 | 0 | 0.0 | 0.0 | 0.00 | 0.00 | 0.00 | 98 | 1008.5 |
| 20260506134043 | 10 | 0 | 0.0 | 0.0 | 0.00 | 0.00 | 0.00 | 98 | 1008.6 |
| 20260506133543 | 10 | 0 | 0.0 | 0.0 | 0.00 | 0.00 | 0.00 | 98 | 1008.5 |
| 20260506133057 | 10 | 0 | 0.0 | 0.0 | 0.00 | 0.00 | 0.00 | 98 | 1008.5 |
| 20260506132543 | 10 | 0 | 0.0 | 0.0 | 0.00 | 0.00 | 0.00 | 98 | 1008.5 |
| 20260506132049 | 10 | 0 | 0.0 | 0.0 | 0.00 | 0.00 | 0.00 | 98 | 1008.3 |
| 20260506131552 | 10 | 0 | 0.0 | 0.0 | 0.00 | 0.00 | 0.00 | 98 | 1008.4 |
| 20260506131045 | 10 | 0 | 0.0 | 0.0 | 0.00 | 0.00 | 0.00 | 98 | 1008.4 |
| 20260506130544 | 9 | 0 | 0.0 | 0.0 | 0.00 | 0.00 | 0.00 | 98 | 1008.4 |
| 20260506130058 | 9 | 0 | 0.0 | 0.0 | 0.00 | 0.00 | 0.00 | 98 | 1008.6 |
| 20260506125550 | 9 | 0 | 0.0 | 0.0 | 0.00 | 0.00 | 0.00 | 98 | 1008.3 |
| 20260506125045 | 9 | 0 | 0.0 | 0.0 | 0.00 | 0.00 | 0.00 | 98 | 1008.5 |
| 20260506124550 | 9 | 0 | 0.0 | 0.0 | 0.00 | 0.00 | 0.00 | 98 | 1008.4 |
| 20260506124045 | 9 | 0 | 0.0 | 0.0 | 0.00 | 0.00 | 0.00 | 98 | 1008.6 |
| 20260506123544 | 9 | 0 | 0.0 | 0.0 | 0.00 | 0.00 | 0.00 | 98 | 1008.6 |
| 20260506123052 | 9 | 0 | 0.0 | 0.0 | 0.00 | 0.00 | 0.00 | 98 | 1008.7 |
| 20260506122544 | 9 | 0 | 0.0 | 0.0 | 0.00 | 0.00 | 0.00 | 98 | 1008.6 |
| 20260506122045 | 8 | 0 | 0.0 | 0.0 | 0.00 | 0.00 | 0.00 | 98 | 1008.7 |
| 20260506121553 | 8 | 0 | 0.0 | 0.0 | 0.00 | 0.00 | 0.00 | 98 | 1008.6 |
| 20260506121043 | 8 | 0 | 0.0 | 0.0 | 0.00 | 0.00 | 0.00 | 98 | 1008.8 |
| 20260506120545 | 8 | 0 | 0.0 | 0.0 | 0.00 | 0.00 | 0.00 | 98 | 1008.8 |
| 20260506120048 | 8 | 0 | 0.0 | 0.0 | 0.00 | 0.00 | 0.00 | 97 | 1009.0 |
| 20260506115544 | 8 | 0 | 0.0 | 0.0 | 0.00 | 0.00 | 0.00 | 97 | 1009.0 |
| 20260506115042 | 8 | 0 | 0.0 | 0.0 | 0.00 | 0.00 | 0.00 | 97 | 1009.2 |
| 20260506114556 | 8 | 0 | 0.0 | 0.0 | 0.00 | 0.00 | 0.00 | 97 | 1009.1 |
| 20260506114043 | 8 | 0 | 0.0 | 0.0 | 0.00 | 0.00 | 0.00 | 97 | 1009.1 |
| 20260506113544 | 8 | 0 | 0.0 | 1.6 | 0.00 | 0.00 | 0.00 | 97 | 1008.9 |
| 20260506113049 | 8 | 0 | 0.0 | 1.6 | 0.00 | 0.00 | 0.00 | 97 | 1009.1 |
| 20260506112545 | 8 | 0 | 0.0 | 1.6 | 0.00 | 0.00 | 0.00 | 97 | 1009.2 |
| 20260506112044 | 9 | 0 | 0.0 | 0.0 | 0.00 | 0.00 | 0.00 | 98 | 1009.1 |
| 20260506111551 | 8 | 0 | 0.0 | 0.0 | 0.00 | 0.00 | 0.00 | 98 | 1009.0 |
| 20260506111044 | 8 | 0 | 0.0 | 0.0 | 0.00 | 0.00 | 0.00 | 98 | 1008.8 |
| 20260506110548 | 8 | 0 | 0.0 | 0.0 | 0.00 | 0.00 | 0.00 | 98 | 1008.8 |
| 20260506110054 | 8 | 0 | 0.0 | 0.0 | 0.00 | 0.00 | 0.00 | 98 | 1008.8 |
| 20260506105544 | 8 | 0 | 0.0 | 0.0 | 0.00 | 0.00 | 0.00 | 98 | 1008.8 |
| 20260506105044 | 8 | 0 | 0.0 | 0.0 | 0.00 | 0.00 | 0.00 | 98 | 1008.9 |
| 20260506104556 | 7 | 0 | 0.0 | 0.0 | 0.00 | 0.00 | 0.00 | 98 | 1008.8 |
| 20260506104043 | 7 | 0 | 0.0 | 0.0 | 0.00 | 0.00 | 0.00 | 97 | 1008.8 |
| 20260506103544 | 7 | 0 | 0.0 | 0.0 | 0.00 | 0.00 | 0.00 | 97 | 1009.1 |
| 20260506103053 | 7 | 0 | 0.0 | 0.0 | 0.00 | 0.00 | 0.00 | 97 | 1008.9 |
| 20260506102546 | 7 | 0 | 0.0 | 0.0 | 0.00 | 0.00 | 0.00 | 97 | 1009.0 |
| 20260506102046 | 7 | 0 | 0.0 | 0.0 | 0.00 | 0.00 | 0.00 | 97 | 1008.9 |
| 20260506101550 | 7 | 0 | 0.0 | 0.0 | 0.00 | 0.00 | 0.00 | 97 | 1009.0 |
| 20260506101045 | 7 | 0 | 0.0 | 0.0 | 0.00 | 0.00 | 0.00 | 97 | 1009.2 |
| 20260506100544 | 7 | 0 | 0.0 | 0.0 | 0.00 | 0.00 | 0.00 | 97 | 1009.3 |
| 20260506100053 | 7 | 0 | 0.0 | 0.0 | 0.00 | 0.00 | 0.00 | 97 | 1009.1 |
| 20260506095544 | 7 | 0 | 0.0 | 0.0 | 0.00 | 0.00 | 0.00 | 97 | 1009.1 |
| 20260506095044 | 7 | 0 | 0.0 | 0.0 | 0.00 | 0.00 | 0.00 | 96 | 1009.5 |
| 20260506094603 | 8 | 0 | 0.0 | 0.0 | 0.00 | 0.00 | 0.00 | 97 | 1009.5 |
| 20260506094046 | 8 | 0 | 0.0 | 0.0 | 0.00 | 0.00 | 0.00 | 97 | 1009.6 |
| 20260506093543 | 8 | 0 | 0.0 | 0.0 | 0.00 | 0.00 | 0.00 | 97 | 1009.3 |
| 20260506093050 | 8 | 0 | 0.0 | 0.0 | 0.00 | 0.00 | 0.00 | 97 | 1009.2 |
| 20260506092543 | 8 | 0 | 0.0 | 0.0 | 0.00 | 0.00 | 0.00 | 97 | 1009.1 |
| 20260506092043 | 8 | 0 | 0.0 | 0.0 | 0.00 | 0.00 | 0.00 | 97 | 1009.0 |
| 20260506091549 | 8 | 0 | 0.0 | 0.0 | 0.00 | 0.00 | 0.00 | 97 | 1009.1 |
| 20260506091045 | 8 | 0 | 0.0 | 0.0 | 0.00 | 0.00 | 0.00 | 97 | 1009.1 |
| 20260506090545 | 8 | 0 | 0.0 | 0.0 | 0.00 | 0.00 | 0.00 | 97 | 1009.5 |
| 20260506090056 | 8 | 0 | 0.0 | 0.0 | 0.00 | 0.00 | 0.00 | 97 | 1009.3 |
| 20260506085541 | 8 | 0 | 0.0 | 0.0 | 0.00 | 0.00 | 0.00 | 97 | 1008.8 |
| 20260506085041 | 8 | 0 | 0.0 | 0.0 | 0.00 | 0.00 | 0.00 | 97 | 1009.0 |
| 20260506084602 | 8 | 0 | 0.0 | 0.0 | 0.00 | 0.00 | 0.00 | 97 | 1008.8 |
| 20260506084044 | 8 | 0 | 0.0 | 0.0 | 0.00 | 0.00 | 0.00 | 97 | 1008.3 |
| 20260506083544 | 8 | 0 | 0.0 | 0.0 | 0.00 | 0.00 | 0.00 | 97 | 1008.7 |
| 20260506083050 | 8 | 0 | 0.0 | 0.0 | 0.00 | 0.00 | 0.00 | 96 | 1009.4 |
| 20260506082544 | 8 | 0 | 0.0 | 0.0 | 0.00 | 0.00 | 0.00 | 97 | 1009.3 |
| 20260506082044 | 8 | 0 | 0.0 | 0.0 | 0.00 | 0.00 | 0.00 | 97 | 1009.4 |
| 20260506081548 | 8 | 0 | 0.0 | 0.0 | 0.00 | 0.00 | 0.00 | 97 | 1009.4 |
| 20260506081044 | 8 | 0 | 0.0 | 0.0 | 0.00 | 0.00 | 0.00 | 97 | 1008.8 |
| 20260506080542 | 8 | 0 | 0.0 | 0.0 | 0.00 | 0.00 | 0.00 | 97 | 1009.1 |
| 20260506073059 | 8 | 0 | 0.0 | 0.0 | 0.00 | 0.00 | 0.00 | 97 | 1009.5 |
| 20260506072543 | 8 | 0 | 0.0 | 0.0 | 0.00 | 0.00 | 0.00 | 96 | 1009.3 |
| 20260506072044 | 8 | 0 | 0.0 | 0.0 | 0.00 | 0.00 | 0.00 | 96 | 1009.8 |
| 20260506071555 | 9 | 0 | 0.0 | 0.0 | 0.00 | 0.00 | 0.00 | 97 | 1009.7 |
| 20260506071044 | 9 | 0 | 0.0 | 0.0 | 0.00 | 0.00 | 0.00 | 97 | 1009.5 |
| 20260506070547 | 9 | 0 | 0.0 | 0.0 | 0.00 | 0.00 | 0.00 | 97 | 1009.3 |
| 20260506062044 | 9 | 0 | 0.0 | 1.6 | 0.00 | 0.00 | 0.00 | 96 | 1009.2 |
| 20260506061600 | 9 | 0 | 0.0 | 1.6 | 0.00 | 0.00 | 0.00 | 96 | 1009.2 |
| 20260506061044 | 10 | 0 | 0.0 | 0.0 | 0.00 | 0.00 | 0.00 | 96 | 1009.3 |
| 20260506060543 | 10 | 0 | 0.0 | 0.0 | 0.00 | 0.00 | 0.00 | 96 | 1009.1 |